[[{"header":{"parameterUnit":"m.s-1","parameterCategory":1,"la1":30.2991,"la2":30.254,"lo1":-89.0895,"lo2":-89.0444,"dy":0.0017,"dx":0.0017,"nx":28,"ny":28,"refTime":"2023-09-02T09:00:00:Z","depth":0,"parameterNumber":2,"parameterNumberName":"U-component_of_WINDS"},"data":[0,0,0,0,0,0,0,0,0,0,0,0,0,0,0,0,0,0,0,0,0,0,0,0,0,0,0,0,0,0,0,0,0,0,0,0,0,0,0,0,0,0,0,0,0,0,0,0,0,0,0,0,0,0,0,0,0,0,-1.7444,-1.7444,0,-1.7435,-1.7435,-1.7435,-1.7408,-1.7408,-1.7407,-1.7407,-1.7398,-1.7399,-1.7399,0,0,0,0,0,0,0,0,0,0,0,0,0,-1.7437,-1.7438,-1.7444,-1.7444,-1.7444,-1.7435,-1.7435,-1.7435,-1.7409,-1.7408,-1.7407,-1.7406,-1.7398,-1.7399,-1.7399,0,0,0,0,0,0,0,0,0,0,0,0,0,-1.7436,-1.7438,-1.7444,-1.7429,-1.7428,-1.7435,-1.7435,-1.7435,-1.7409,-1.7408,-1.7407,-1.7406,-1.7398,-1.7398,-1.7399,-1.742,0,0,-1.74,-1.7401,0,0,0,0,0,0,0,0,-1.7436,-1.7436,-1.7432,-1.743,-1.7429,-1.7422,-1.743,-1.743,-1.7409,-1.7416,-1.7407,-1.7406,-1.7407,-1.7407,-1.7407,-1.7419,-1.7419,-1.74,-1.7401,-1.7401,-1.7401,0,0,0,0,0,0,0,-1.7436,-1.7436,-1.744,-1.7432,-1.743,-1.7423,-1.7422,-1.743,-1.7417,-1.7415,-1.7413,-1.7413,-1.7406,-1.7407,-1.7407,-1.7419,-1.74,-1.7401,-1.7401,-1.7401,-1.7447,-1.7448,0,0,0,0,0,0,-1.7438,-1.7436,-1.7441,-1.744,-1.743,-1.7424,-1.7423,-1.7425,-1.7416,-1.7414,-1.7414,-1.7412,-1.7406,-1.7406,-1.7406,-1.7429,-1.7401,-1.7401,-1.7402,-1.7446,-1.7447,-1.7448,0,0,0,0,0,0,-1.7438,-1.7439,-1.7441,-1.7438,-1.7438,-1.7425,-1.7428,-1.7425,-1.7426,-1.7415,-1.7413,-1.7416,-1.7405,-1.7405,-1.7416,-1.7428,-1.7402,-1.7402,-1.7445,-1.7446,-1.7447,-1.7474,0,0,0,0,0,0,-1.7438,-1.7439,-1.7447,-1.7438,-1.7438,-1.7451,-1.7429,-1.7426,-1.7427,-1.7424,-1.7417,-1.7415,-1.7405,-1.7416,-1.7417,-1.7428,-1.7402,-1.7444,-1.7445,-1.7447,-1.7472,-1.7476,-1.748,0,0,0,0,0,-1.7438,-1.7455,-1.7447,-1.7448,-1.7447,-1.7452,-1.7452,-1.7439,-1.7428,-1.7435,-1.7428,-1.7415,-1.7427,-1.7417,-1.7418,-1.743,-1.7443,-1.7445,-1.7447,-1.7471,-1.7476,-1.748,0,0,0,0,0,0,-1.7465,-1.7453,-1.7445,-1.7459,-1.7457,-1.7447,-1.7456,-1.7445,-1.7446,-1.7444,-1.7429,-1.7427,-1.744,-1.7436,-1.7425,-1.7449,-1.7433,-1.7435,-1.745,-1.7455,-1.7459,-1.7459,-1.7403,0,0,0,0,0,-1.7473,-1.7477,-1.7467,-1.7481,-1.748,-1.7469,-1.747,-1.7461,-1.7458,-1.7457,-1.7451,-1.7448,-1.7451,-1.7453,-1.7456,-1.7473,-1.747,-1.7481,-1.7485,-1.7488,-1.749,-1.7497,-1.7502,-1.7455,-1.7455,-1.7455,0,0,-1.7488,-1.7483,-1.7487,-1.7486,-1.7483,-1.7488,-1.7468,-1.7474,-1.7478,-1.7458,-1.7467,-1.7463,-1.7459,-1.7473,-1.7478,-1.747,-1.7502,-1.7491,-1.7493,-1.7493,-1.75,-1.7504,-1.7508,-1.7456,-1.7456,-1.7456,0,0,-1.7519,-1.7516,-1.7526,-1.7524,-1.752,-1.7512,-1.7515,-1.7507,-1.7503,-1.7512,-1.7497,-1.7501,-1.7507,-1.7505,-1.7504,-1.7535,-1.7522,-1.7536,-1.7555,-1.7563,-1.7567,-1.757,-1.7579,-1.7583,-1.7538,-1.7538,-1.7538,0,-1.7539,-1.7546,-1.7533,-1.754,-1.754,-1.7523,-1.7533,-1.7532,-1.7528,-1.7529,-1.752,-1.7526,-1.7522,-1.7534,-1.7542,-1.7543,-1.7545,-1.7536,-1.7567,-1.757,-1.7573,-1.7582,-1.7585,-1.754,-1.754,-1.754,-1.7539,0,-1.757,-1.7575,-1.7584,-1.7581,-1.7582,-1.7591,-1.758,-1.7583,-1.7574,-1.7567,-1.7577,-1.7572,-1.7572,-1.7575,-1.7567,-1.7586,-1.7581,-1.757,-1.7553,-1.7579,-1.7587,-1.759,-1.7542,-1.7542,-1.7541,-1.7541,0,0,-1.7616,-1.7606,-1.7609,-1.7607,-1.7602,-1.7605,-1.7614,-1.7614,-1.7616,-1.7615,-1.7621,-1.7626,-1.7616,-1.7615,-1.7607,-1.7614,-1.7636,-1.7602,-1.7601,-1.7607,-1.7656,-1.7663,-1.7667,-1.7629,-1.763,-1.763,-1.7655,0,-1.7643,-1.7656,-1.7645,-1.766,-1.7664,-1.7648,-1.7655,-1.7652,-1.7646,-1.7649,-1.7643,-1.7646,-1.7633,-1.7633,-1.7639,-1.7632,-1.7646,-1.7631,-1.7633,-1.7633,-1.7632,-1.7671,-1.7678,-1.7702,-1.7659,-1.7659,-1.766,0,-1.7677,-1.7677,-1.7692,-1.7684,-1.7686,-1.7692,-1.7691,-1.7694,-1.7691,-1.7686,-1.7686,-1.7675,-1.7683,-1.7668,-1.7677,-1.7667,-1.7668,-1.7665,-1.7666,-1.7664,-1.7647,-1.7668,-1.771,-1.7713,-1.7665,-1.7664,-1.7664,0,-1.7707,-1.771,-1.7719,-1.7719,-1.7711,-1.7716,-1.7713,-1.7708,-1.7709,-1.7709,-1.7709,-1.771,-1.771,-1.7711,-1.7701,-1.7691,-1.7711,-1.7695,-1.7706,-1.7706,-1.7709,-1.7709,-1.775,-1.7713,-1.7713,-1.7713,-1.7713,0,-1.7737,-1.7747,-1.7732,-1.7738,-1.7748,-1.7736,-1.7746,-1.7742,-1.7738,-1.7742,-1.7729,-1.7733,-1.772,-1.7723,-1.7716,-1.7724,-1.7725,-1.772,-1.7718,-1.772,-1.7721,-1.7719,-1.7716,-1.7714,-1.7714,-1.7714,-1.7714,0,-1.7771,-1.7762,-1.7771,-1.7763,-1.7761,-1.7769,-1.7762,-1.7767,-1.7761,-1.7766,-1.7767,-1.7757,-1.7759,-1.775,-1.7751,-1.7746,-1.7758,-1.7753,-1.7758,-1.7756,-1.7767,-1.7766,-1.7807,-1.7811,-1.7774,-1.7774,-1.7774,0,-1.779,-1.7797,-1.779,-1.7792,-1.7789,-1.7793,-1.7793,-1.7782,-1.7783,-1.778,-1.7785,-1.7787,-1.7787,-1.7792,-1.7785,-1.7786,-1.778,-1.7795,-1.778,-1.7782,-1.7778,-1.7777,-1.7777,-1.7797,-1.7797,-1.7798,-1.7798,0,-1.7825,-1.782,-1.7821,-1.7821,-1.7822,-1.7822,-1.782,-1.7823,-1.7811,-1.7813,-1.7815,-1.7816,-1.7817,-1.7818,-1.7817,-1.7814,-1.7804,-1.7803,-1.7805,-1.7807,-1.7809,-1.7806,-1.7764,-1.7802,-1.7801,-1.7801,-1.7801,-1.7801,-1.7851,-1.7856,-1.7851,-1.7853,-1.7851,-1.785,-1.7853,-1.7848,-1.785,-1.7849,-1.7843,-1.7846,-1.7843,-1.7841,-1.7839,-1.7841,-1.7834,-1.7838,-1.7839,-1.7839,-1.784,-1.781,-1.7841,-1.7841,-1.7841,-1.7841,-1.7841,0,-1.7883,-1.7879,-1.7881,-1.788,-1.7881,-1.7872,-1.787,-1.7871,-1.7875,-1.7872,-1.7873,-1.7875,-1.7877,-1.787,-1.7871,-1.7874,-1.7869,-1.7874,-1.7873,-1.7872,-1.7847,-1.7844,-1.7878,-1.7878,-1.7878,-1.7878,-1.7878,-1.7878,-1.79,-1.7907,-1.7902,-1.7908,-1.7904,-1.7907,-1.7907,-1.7906,-1.7904,-1.7907,-1.7908,-1.7904,-1.7899,-1.7899,-1.79,-1.7898,-1.7898,-1.7905,-1.7901,-1.7878,-1.7874,-1.787,-1.7867,-1.7905,-1.7905,-1.7925,-1.7925,-1.7925]},{"header":{"parameterUnit":"m.s-1","parameterCategory":1,"la1":30.2991,"la2":30.254,"lo1":-89.0895,"lo2":-89.0444,"dy":0.0017,"dx":0.0017,"nx":28,"ny":28,"refTime":"2023-09-02T09:00:00:Z","depth":0,"parameterNumber":3,"parameterNumberName":"V-component_of_WINDS"},"data":[0,0,0,0,0,0,0,0,0,0,0,0,0,0,0,0,0,0,0,0,0,0,0,0,0,0,0,0,0,0,0,0,0,0,0,0,0,0,0,0,0,0,0,0,0,0,0,0,0,0,0,0,0,0,0,0,0,0,-1.6801,-1.6802,0,-1.6839,-1.684,-1.684,-1.6835,-1.6834,-1.6833,-1.6833,-1.6871,-1.6873,-1.6874,0,0,0,0,0,0,0,0,0,0,0,0,0,-1.6722,-1.6723,-1.6801,-1.6802,-1.6802,-1.6839,-1.684,-1.684,-1.6835,-1.6834,-1.6833,-1.6833,-1.6871,-1.6872,-1.6874,0,0,0,0,0,0,0,0,0,0,0,0,0,-1.6758,-1.6724,-1.6801,-1.6804,-1.6804,-1.6839,-1.684,-1.6841,-1.6835,-1.6834,-1.6833,-1.6832,-1.687,-1.6872,-1.6875,-1.6909,0,0,-1.6882,-1.6883,0,0,0,0,0,0,0,0,-1.6756,-1.6761,-1.6803,-1.6804,-1.6804,-1.6831,-1.6826,-1.6863,-1.6835,-1.6823,-1.6833,-1.6832,-1.6859,-1.6862,-1.6871,-1.6911,-1.6912,-1.6882,-1.6884,-1.6885,-1.6885,0,0,0,0,0,0,0,-1.6753,-1.6759,-1.6816,-1.6804,-1.6804,-1.6803,-1.6807,-1.6833,-1.6846,-1.6824,-1.6824,-1.6829,-1.6859,-1.6869,-1.6872,-1.6913,-1.6882,-1.6884,-1.6886,-1.6887,-1.6982,-1.6983,0,0,0,0,0,0,-1.675,-1.6757,-1.6815,-1.6817,-1.6777,-1.6805,-1.6809,-1.6824,-1.6846,-1.6848,-1.6829,-1.6828,-1.6865,-1.6869,-1.6873,-1.6915,-1.6885,-1.6887,-1.6888,-1.6981,-1.6982,-1.6983,0,0,0,0,0,0,-1.6749,-1.6755,-1.6813,-1.6787,-1.6794,-1.6807,-1.6823,-1.6825,-1.6835,-1.6849,-1.6852,-1.6837,-1.6865,-1.687,-1.69,-1.6916,-1.6888,-1.689,-1.698,-1.6981,-1.6983,-1.6998,0,0,0,0,0,0,-1.6746,-1.6755,-1.6768,-1.6788,-1.6796,-1.684,-1.6824,-1.6826,-1.6839,-1.6838,-1.6858,-1.686,-1.6864,-1.6896,-1.6902,-1.6919,-1.6892,-1.6978,-1.698,-1.6982,-1.6997,-1.7,-1.7004,0,0,0,0,0,-1.6743,-1.6771,-1.6769,-1.6776,-1.6813,-1.6841,-1.6846,-1.6851,-1.6841,-1.6854,-1.6863,-1.6859,-1.6913,-1.69,-1.6906,-1.6924,-1.6977,-1.698,-1.6982,-1.6995,-1.7,-1.7004,0,0,0,0,0,0,-1.6753,-1.6774,-1.6772,-1.6806,-1.6822,-1.684,-1.6857,-1.6855,-1.6874,-1.6872,-1.6877,-1.6881,-1.6912,-1.6921,-1.6905,-1.6958,-1.6944,-1.6948,-1.6951,-1.6956,-1.6959,-1.6957,-1.6894,0,0,0,0,0,-1.676,-1.6781,-1.6797,-1.6826,-1.6834,-1.6845,-1.6857,-1.6859,-1.6875,-1.6882,-1.6893,-1.6909,-1.6929,-1.6943,-1.6963,-1.6997,-1.7001,-1.7013,-1.7016,-1.7019,-1.7023,-1.7041,-1.7047,-1.6991,-1.6991,-1.6991,0,0,-1.6773,-1.6786,-1.68,-1.6829,-1.6841,-1.6863,-1.685,-1.6874,-1.689,-1.6885,-1.6915,-1.6924,-1.6941,-1.6974,-1.6989,-1.6982,-1.7039,-1.7022,-1.7024,-1.7026,-1.7044,-1.705,-1.7054,-1.6993,-1.6993,-1.6992,0,0,-1.6808,-1.6821,-1.6846,-1.6859,-1.6878,-1.6884,-1.689,-1.6909,-1.6914,-1.6944,-1.6941,-1.696,-1.6995,-1.7008,-1.7019,-1.7058,-1.7055,-1.7064,-1.7083,-1.7101,-1.7106,-1.711,-1.7124,-1.7129,-1.7067,-1.7067,-1.7067,0,-1.6822,-1.6855,-1.686,-1.6884,-1.6896,-1.6893,-1.6919,-1.6931,-1.6955,-1.6964,-1.6956,-1.7,-1.7012,-1.7047,-1.7057,-1.7066,-1.7073,-1.7062,-1.7105,-1.7109,-1.7113,-1.7126,-1.7132,-1.7068,-1.7068,-1.7068,-1.7068,0,-1.6872,-1.6895,-1.6913,-1.6937,-1.6951,-1.6976,-1.6984,-1.6998,-1.6998,-1.7006,-1.7035,-1.7049,-1.7072,-1.708,-1.7081,-1.7115,-1.7111,-1.7104,-1.709,-1.7119,-1.7132,-1.7137,-1.707,-1.707,-1.7069,-1.7069,0,0,-1.6915,-1.6941,-1.6948,-1.6958,-1.6979,-1.6996,-1.702,-1.7042,-1.7055,-1.7071,-1.7091,-1.7121,-1.7115,-1.7127,-1.7129,-1.7145,-1.7176,-1.7136,-1.7137,-1.7143,-1.7215,-1.7221,-1.7227,-1.7173,-1.7174,-1.7175,-1.7214,0,-1.6953,-1.6997,-1.7001,-1.704,-1.7061,-1.7058,-1.7079,-1.7093,-1.71,-1.7119,-1.7126,-1.7147,-1.7137,-1.7144,-1.716,-1.7169,-1.719,-1.7166,-1.7192,-1.7193,-1.7189,-1.7233,-1.724,-1.7276,-1.7219,-1.7219,-1.722,0,-1.7003,-1.7022,-1.7063,-1.708,-1.7089,-1.7108,-1.7128,-1.7146,-1.7162,-1.7166,-1.718,-1.7179,-1.7204,-1.7188,-1.7222,-1.7205,-1.7216,-1.7221,-1.7223,-1.7226,-1.7209,-1.7239,-1.7287,-1.7293,-1.7228,-1.7227,-1.7227,0,-1.7032,-1.7066,-1.7096,-1.7105,-1.7125,-1.7139,-1.7148,-1.7163,-1.7176,-1.7193,-1.7202,-1.7221,-1.7232,-1.7248,-1.7252,-1.7241,-1.7286,-1.7271,-1.729,-1.729,-1.73,-1.73,-1.7352,-1.7306,-1.7306,-1.7306,-1.7306,0,-1.7074,-1.71,-1.7109,-1.7127,-1.7155,-1.7159,-1.7186,-1.7195,-1.7208,-1.7227,-1.7225,-1.7243,-1.7248,-1.7266,-1.727,-1.7297,-1.7302,-1.7306,-1.7307,-1.7307,-1.7306,-1.7315,-1.7313,-1.7307,-1.7307,-1.7307,-1.7306,0,-1.7111,-1.7118,-1.715,-1.7167,-1.7171,-1.7192,-1.7206,-1.7223,-1.7229,-1.7253,-1.7259,-1.7269,-1.729,-1.7296,-1.7322,-1.7325,-1.7357,-1.7355,-1.7352,-1.7352,-1.7371,-1.737,-1.7431,-1.744,-1.7387,-1.7388,-1.7388,0,-1.7138,-1.7158,-1.7177,-1.7189,-1.7199,-1.722,-1.7233,-1.7237,-1.7251,-1.727,-1.7285,-1.7306,-1.7324,-1.7359,-1.7368,-1.7387,-1.7386,-1.7407,-1.7389,-1.7389,-1.7387,-1.7387,-1.7389,-1.741,-1.7411,-1.7411,-1.7412,0,-1.7186,-1.7188,-1.7207,-1.7228,-1.7244,-1.726,-1.7275,-1.7286,-1.7292,-1.7307,-1.733,-1.7343,-1.737,-1.7391,-1.7411,-1.742,-1.7417,-1.7417,-1.7422,-1.7423,-1.742,-1.7423,-1.7362,-1.7416,-1.7415,-1.7415,-1.7415,-1.7414,-1.7219,-1.7236,-1.7252,-1.7274,-1.7286,-1.73,-1.7317,-1.7325,-1.7344,-1.7366,-1.7367,-1.7391,-1.7406,-1.7432,-1.7442,-1.7461,-1.7455,-1.7463,-1.7465,-1.7467,-1.7469,-1.7417,-1.7464,-1.7464,-1.7464,-1.7464,-1.7464,0,-1.7267,-1.7277,-1.7296,-1.7318,-1.7335,-1.733,-1.7347,-1.7361,-1.7383,-1.7397,-1.7414,-1.744,-1.746,-1.7471,-1.7491,-1.7504,-1.7503,-1.7509,-1.7508,-1.7511,-1.7473,-1.7467,-1.7509,-1.7509,-1.7509,-1.7509,-1.7509,-1.7509,-1.7294,-1.7323,-1.7327,-1.7362,-1.7371,-1.7395,-1.7405,-1.7418,-1.743,-1.7458,-1.7475,-1.7482,-1.7494,-1.7515,-1.7534,-1.7536,-1.7544,-1.7551,-1.7553,-1.7518,-1.7513,-1.7509,-1.7503,-1.7552,-1.7553,-1.7589,-1.7589,-1.7589]}]]